Tracking 20712 objects as of 28-May-2020
HD Live streaming from Space Station
objects crossing your sky now

FENGYUN 1C DEB

Track FENGYUN 1C DEB now!
10-day predictions


NORAD ID: 31012
Int'l Code: 1999-025BDE
Perigee: 752.3 km
Apogee: 873.1 km
Inclination: 99.1 °
Period: 101.0 minutes
Semi major axis: 7183 km
RCS: 0.0146 m2 (small)
Launch date: May 10, 1999
Source: People's Republic of China (PRC)
Launch site: Taiyaun Space Center, China (TSC)

Note: This is SATELLITE DEBRIS
aabbcc
Your satellite tracking list
Your tracking list is empty




NASA's NSSDC Master Catalog

Two Line Element Set (TLE):
1 31012U 99025BDE 20147.97345468 +.00000032 +00000-0 +32316-4 0  9996
2 31012 099.0744 317.4443 0084072 336.4955 188.0040 14.25871410688651
Source of the keplerian elements: AFSPC